Location: Newark
(49.8969°N, 3.3422°E)
Time: 15:16:54
(UTC+00:00)

A-11 Canister half - Pass Details

Date: 21 January 2020
Orbit: 1517 x 1683 km, 47.2° (Epoch: 17 February)

Event Time Altitude Azimuth Distance (km) Brightness Sun altitude
Exits shadow 06:29:20 12° 280° (W) 3,560 10.3 -10.3°
Maximum altitude 06:37:22 42° 215° (SW) 2,071 9.6 -9.1°
Drops below altitude 10° 06:45:58 10° 148° (SSE) 3,741 11.9 -7.8°
Sets 06:49:17 0° 142° (SE) 4,745 12.8 -7.3°
